Weather Roundup
Issued by NWS Chicago, IL

Home | Current Version | Previous Version | Text Only | Print | Product List | Glossary Off
Versions: 1 2 3 4 5 6 7 8 9 10 11 12 13 14 15 16 17 18 19 20 21 22 23 24 25 26 27 28 29 30 31 32 33 34 35 36 37 38 39 40 41 42 43 44 45 46 47 48 49 50

000
NZUS59 KLOT 021903
HRRLOT

CHICAGO AREA WEATHER ROUNDUP
NATIONAL WEATHER SERVICE CHICAGO/ROMEOVILLE IL
200 PM CDT SUN AUG 02 2015

NOTE: "FAIR" INDICATES FEW OR NO CLOUDS BELOW 12,000 FEET WITH NO
SIGNIFICANT WEATHER AND/OR OBSTRUCTIONS TO VISIBILITY.

* THESE STATIONS ARE NOT UNDER NWS QUALITY CONTROL. THEY ALSO MAY NOT
  REPORT WEATHER SUCH AS PRECIPITATION OR FOG.

ILZ005-006-012>014-019>023-022000-
NORTHEAST ILLINOIS

CITY           SKY/WX    TMP DP  RH WIND       PRES   REMARKS
OHARE          MOSUNNY   90  66  45 SW20G33   29.75F HX  92
MIDWAY         MOSUNNY   94  64  37 SW21G30   29.76F HX  95
AURORA         MOSUNNY   89  68  49 SW20G26   29.77F HX  93
WAUKEGAN       SUNNY     90  67  46 SW13G26   29.70F HX  93
DUPAGE AIRPORT SUNNY     91  68  46 SW21G29   29.76F HX  95
WHEELING       SUNNY     92  65  40 SW15G30   29.74F HX  94
NORTHERLY IS     N/A     90  60  36 W16         N/A  HX  89
$$

WIZ051-052-058>065-066-070>072-022000-
SOUTHEAST WISCONSIN

CITY           SKY/WX    TMP DP  RH WIND       PRES   REMARKS
MILWAUKEE      MOSUNNY   92  66  42 SW23G36   29.67F HX  94
KENOSHA*       SUNNY     91  68  46 SW18G30   29.70F HX  95
RACINE*        SUNNY     91  66  43 SW23G35   29.68F HX  93
WAUKESHA       SUNNY     88  66  48 SW14G29   29.69F HX  90
$$

INZ001>003-010>013-019-020-022000-
NORTHWEST INDIANA

CITY           SKY/WX    TMP DP  RH WIND       PRES   REMARKS
GARY*          MOSUNNY   91  63  38 SW20G36   29.79F HX  92
MICHIGAN CITY* NOT AVBL
RENSSELAER*    NOT AVBL
$$

LMZ740>746-022000-
SOUTHERN LAKE MICHIGAN

STATION/POSITION TIME  SKY/WX   TEMP WIND        PRES    VSBY
                                AIR  DIR/SP/G
                 (UTC)          (F)  (DEG/KT/KT) (MB)    (MI)
HARRISON CRIB    1815            86  220/ 22/ 29   N/A
BURNHAM HARBOR   1900            91  220/ 10/ 21   N/A
CALUMET HARBOR   1800            88  210/ 15/ 23   N/A
BURNS HARBOR     1828            87  230/ 17/ 27 1009.5S
MICHIGAN CITY    1800            82  220/ 19/ 22   N/A
$$

ABBREVIATIONS USED IN REMARKS
   TC - TEMPERATURE IN CELSIUS
  WCI - WIND CHILL INDEX
   HX - HEAT INDEX
  VSB - VISIBILITY
$$



USA.gov is the U.S. government's official web portal to all federal, state and local government web resources and services.